Location: Croisilles
(50.1998°N, 2.8793°E)
Time: 13:36:13
(UTC+00:00)

Cosmos 2263 Rocket - Pass Details

Date: 21 January 2021
Orbit: 825 x 847 km, 71.0° (Epoch: 26 February)

Event Time Altitude Azimuth Distance (km) Brightness Sun altitude
Rises 18:42:23 0° 248° (WSW) 3,402 6.7 -21.7°
Reaches altitude 10° 18:45:14 10° 261° (W) 2,468 5.8 -22.2°
Maximum altitude 18:49:57 26° 318° (NW) 1,599 4.0 -22.9°
Enters shadow 18:54:36 10° 14° (NNE) 2,450 4.4 -23.7°
